Lapse_Rate
1.6 2.5 3.9 5.6 6.5 6.5 6.5 6.5 6.5 6.5 6.5 7.1 6.8 6.8 6.6 6.9 6.5 6.5 2.6 3.2 1.9 1.9 1.0 0.8 1.1 1.8 2.3 2.8 2.9 3.2 3.6 4.1 3.9 3.9 3.8 3.9 3.9 3.9 4.1 4.3 5.0 5.3 5.4 5.5 6.1 5.9 5.8 5.6 5.4
1.9 4.1 4.8 5.7 6.5 6.5 6.5 6.5 6.5 6.5 6.9 6.3 6.3 6.5 6.7 6.5 5.5 4.6 4.7 2.3 2.3 1.5 0.9 1.1 1.2 1.8 2.6 3.0 3.1 3.3 3.7 3.8 4.0 3.9 3.9 4.1 4.3 4.3 4.2 4.7 5.2 5.5 5.7 5.7 6.1 6.3 6.0 5.4 5.4
4.1 4.3 6.8 6.5 6.5 6.5 6.5 6.5 6.5 6.7 7.0 6.8 6.9 6.5 6.7 6.9 4.9 4.9 3.3 2.1 1.8 1.8 1.3 1.5 0.9 1.6 2.4 3.1 3.3 3.2 3.4 3.5 3.7 3.8 4.1 4.1 4.2 4.6 4.7 4.9 6.0 5.9 6.1 6.0 6.4 6.2 5.7 5.3 5.3
5.6 6.1 6.3 6.5 6.5 6.5 6.5 6.5 6.6 6.6 7.1 6.4 6.6 6.5 6.0 4.9 4.9 4.6 2.4 2.1 1.9 1.4 1.6 0.8 0.5 1.1 1.9 2.8 3.5 3.5 3.4 3.4 3.4 3.7 4.2 4.4 4.6 4.9 5.6 5.1 5.8 6.0 6.3 6.2 5.9 5.6 4.9 4.6 5.3
4.4 5.6 6.5 6.5 6.5 6.5 6.5 6.8 7.0 6.5 6.8 6.9 6.5 6.6 6.8 3.8 2.8 2.7 2.2 1.9 2.1 1.3 0.4 0.4 0.4 1.2 2.1 2.8 3.2 3.5 3.5 3.5 3.8 4.4 4.5 4.7 4.9 5.0 5.3 6.0 6.6 6.7 6.2 6.4 5.3 4.5 4.1 4.5 4.5
6.7 6.9 6.5 6.5 6.5 6.5 6.5 7.0 6.9 6.7 6.9 7.0 6.8 6.9 6.7 2.5 2.6 1.6 1.7 1.7 2.1 1.6 1.0 1.4 1.1 1.4 2.2 3.0 3.2 3.4 3.6 3.7 3.9 4.3 4.6 5.0 5.1 5.3 5.9 6.3 5.5 4.5 6.2 6.1 4.9 3.7 3.9 4.3 4.2
6.7 6.5 6.5 6.5 6.5 6.5 6.5 6.4 6.7 6.6 6.7 6.8 6.3 6.5 6.1 3.4 2.4 1.3 1.4 1.4 1.4 1.5 1.6 1.6 2.0 2.1 2.0 2.7 3.4 3.3 3.5 3.6 4.1 4.4 5.2 5.4 5.6 6.1 5.6 5.3 5.5 5.7 6.2 6.5 5.0 4.5 4.4 4.0 4.1
6.5 6.5 6.5 6.5 6.5 6.5 6.7 6.9 6.4 6.9 6.7 6.4 6.7 6.5 6.7 4.7 1.7 1.8 1.9 2.0 1.9 1.9 2.1 2.3 1.8 1.9 2.7 3.2 3.2 3.2 3.2 3.2 3.7 4.2 4.6 4.5 4.9 5.6 6.0 5.9 6.0 6.4 6.3 7.1 6.5 4.7 4.4 3.9 4.0
5.1 6.5 6.5 6.5 6.5 6.5 6.9 6.5 6.6 6.4 6.9 6.3 6.6 7.1 5.1 1.5 1.2 2.5 1.9 0.4 0.7 0.8 2.2 2.6 2.7 2.4 2.1 3.2 3.6 2.7 3.4 3.2 3.3 4.4 4.6 4.7 6.0 6.0 5.8 6.4 5.4 5.8 5.7 6.0 5.6 4.7 4.0 3.8 3.9
6.7 6.5 6.5 6.5 6.5 6.5 6.7 6.7 6.9 6.9 6.9 6.8 6.3 5.2 3.0 2.1 2.5 3.6 3.2 1.4 0.6 0.9 0.6 2.3 2.7 2.9 3.1 3.6 4.0 3.6 4.9 5.4 4.8 5.6 5.8 5.5 5.1 5.7 6.2 5.9 5.5 5.7 6.4 6.5 5.8 4.6 3.8 4.3 4.4
6.8 6.5 6.5 6.7 7.0 7.0 6.7 6.7 7.2 6.7 6.5 7.0 6.9 6.4 4.3 3.5 3.3 3.9 4.1 3.6 1.5 2.2 1.1 0.4 1.2 2.7 3.2 3.2 3.9 3.1 4.5 4.9 4.9 5.6 4.5 4.1 3.6 4.0 4.9 5.2 5.4 5.4 6.1 7.3 6.2 4.5 4.9 4.7 5.0
6.5 6.7 6.8 6.8 6.9 6.9 6.5 7.0 6.7 7.0 7.0 7.1 7.2 5.9 5.3 4.0 4.1 3.9 3.7 3.0 2.0 1.6 1.3 0.7 0.5 1.9 2.7 3.1 3.5 3.4 2.7 4.2 4.4 4.4 5.2 5.1 4.4 4.0 4.3 4.1 4.5 5.2 6.4 7.1 6.1 5.7 5.2 4.8 5.9
6.5 6.5 6.9 7.0 6.9 6.9 6.8 6.7 6.7 6.9 6.8 6.6 5.7 5.1 5.0 4.4 4.2 3.8 4.2 4.3 3.3 2.1 1.8 0.6 0.6 1.6 2.1 1.7 2.3 2.4 2.0 2.7 4.1 4.9 4.5 5.3 5.3 4.1 5.0 4.1 4.1 5.3 5.8 6.4 5.1 5.4 4.9 4.8 6.3
6.8 6.8 6.8 7.0 6.9 7.0 6.6 6.6 6.8 6.9 6.1 5.8 5.7 6.6 6.2 4.6 4.4 4.0 3.1 2.9 2.8 2.6 2.9 2.0 1.6 1.8 2.3 1.6 1.5 1.7 1.5 2.4 3.7 4.0 4.5 4.6 5.2 5.5 4.0 4.3 4.7 4.7 4.7 5.6 4.4 4.3 4.0 4.5 7.1
6.9 6.5 6.5 6.6 6.8 6.6 6.9 6.5 6.5 7.3 7.4 7.3 7.3 6.2 5.8 5.2 4.9 3.8 4.0 3.1 3.1 2.8 3.1 1.5 1.9 1.9 2.0 2.6 1.5 2.1 2.0 3.0 3.4 3.4 3.7 4.6 5.0 4.8 4.1 4.7 5.0 4.8 3.8 4.6 4.3 3.7 4.1 4.5 6.6
6.5 6.5 6.5 6.5 6.5 6.6 6.7 6.5 6.5 6.4 7.1 7.1 7.2 6.3 5.5 5.5 5.6 5.5 4.2 3.8 4.4 3.6 2.8 1.6 1.9 1.9 1.5 2.0 1.5 2.1 2.3 3.0 3.9 3.7 3.8 4.8 5.1 4.5 5.5 5.1 4.5 4.2 3.6 3.7 4.1 3.8 4.5 4.7 6.1
6.5 6.5 6.5 6.5 6.5 6.5 6.5 6.5 6.5 7.1 7.0 6.9 6.9 6.4 6.0 5.6 5.2 4.9 4.8 4.6 4.4 4.0 2.9 1.8 1.5 1.9 1.6 2.2 1.5 1.9 2.1 2.7 3.6 4.1 4.0 4.7 4.7 5.2 5.8 5.4 4.8 4.3 4.2 3.4 3.9 3.9 4.6 5.7 5.3
6.5 6.5 6.5 6.5 6.5 6.5 6.5 6.5 6.5 7.0 7.0 6.9 7.1 7.0 6.4 6.1 6.0 5.7 5.0 4.9 4.6 4.3 2.7 1.4 1.5 1.9 1.8 1.6 1.3 2.0 2.1 2.7 3.5 3.9 4.2 4.6 3.9 4.5 5.2 4.7 4.2 4.2 4.1 3.5 4.0 3.6 4.6 5.0 4.9
6.5 6.5 6.5 6.5 6.5 6.5 6.5 6.5 6.5 6.7 6.9 6.8 7.0 7.1 6.9 5.6 5.7 4.9 5.2 4.3 2.9 2.0 1.3 0.2 0.3 1.4 1.8 1.1 1.4 2.2 2.6 2.8 3.2 4.2 4.2 4.6 4.7 4.3 4.7 4.5 3.9 4.4 4.3 3.5 4.8 4.7 3.5 5.2 6.7
6.5 6.5 6.5 6.5 6.5 6.5 6.5 6.5 6.5 6.5 6.6 6.9 7.0 7.1 6.7 6.0 6.2 6.4 5.3 4.3 2.9 2.5 0.6 0.1 0.9 1.1 2.5 2.5 2.3 2.8 2.7 2.8 3.1 4.4 4.4 4.9 5.1 4.4 4.4 3.7 3.4 3.7 4.0 4.0 4.6 5.0 5.1 4.8 5.3
6.5 6.5 6.5 6.5 6.5 6.5 6.5 6.5 6.5 6.5 6.8 7.0 7.2 7.1 6.7 6.9 7.4 6.2 5.1 4.9 3.6 1.9 0.9 0.8 1.8 0.9 3.4 3.5 2.8 2.9 1.9 2.6 2.9 4.2 4.9 4.7 5.3 4.4 4.2 3.5 3.5 3.1 3.3 4.2 4.7 5.1 5.1 4.7 4.8
6.5 6.5 6.5 6.5 6.5 6.5 6.5 6.5 6.5 6.5 6.5 6.5 6.8 7.1 7.2 7.5 7.2 6.3 5.7 5.3 4.9 3.1 2.4 1.9 2.3 1.0 3.0 3.2 2.3 2.7 2.8 2.4 2.1 3.6 5.4 5.2 5.1 4.5 4.1 3.7 3.8 4.0 4.6 4.4 4.8 4.7 4.6 4.6 5.2
6.5 6.5 6.5 6.5 6.5 6.5 6.5 6.5 6.5 6.5 6.5 6.5 6.5 7.0 7.3 7.0 7.1 6.8 6.7 6.5 5.7 3.3 2.3 2.7 1.4 2.5 2.6 2.7 2.9 2.4 2.5 2.8 2.7 4.3 4.6 5.0 5.0 4.8 4.4 3.9 3.6 3.9 4.7 4.2 3.9 4.1 4.9 5.0 6.2
6.5 6.5 6.5 6.5 6.5 6.5 6.5 6.5 6.5 6.5 6.5 6.5 6.5 7.0 7.3 7.4 6.6 6.1 6.7 6.5 6.4 3.2 3.3 3.7 2.0 3.5 3.2 2.7 2.4 0.9 1.7 3.0 3.8 4.1 4.5 5.5 4.6 4.5 5.2 4.6 4.1 3.7 4.0 3.6 4.6 5.1 5.4 5.9 7.1
6.5 6.5 6.5 6.5 6.5 6.5 6.5 6.5 6.5 6.5 6.5 6.5 6.5 7.0 7.3 7.2 7.0 6.8 7.4 6.6 6.5 6.7 4.9 4.3 3.8 5.3 4.3 2.5 1.5 0.7 1.7 2.9 3.9 3.8 5.1 5.2 4.8 4.9 4.8 3.9 3.7 3.7 4.0 4.3 5.5 5.5 7.1 7.6 7.9
6.5 6.5 6.5 6.5 6.5 6.5 6.5 6.5 6.5 6.5 6.7 6.9 7.1 7.2 7.3 7.4 7.7 7.5 6.5 6.8 7.1 8.2 6.1 5.1 5.8 5.6 5.1 2.3 1.2 0.7 2.4 4.0 4.9 5.0 5.3 5.7 7.0 6.0 6.4 4.9 4.1 3.8 3.5 3.9 5.4 5.6 6.0 5.4 6.4
6.5 6.5 6.5 6.5 6.5 6.5 6.5 6.5 6.5 6.5 6.5 6.5 6.7 7.0 7.2 7.4 7.5 7.6 7.3 7.3 8.2 8.5 7.3 6.6 6.6 5.7 5.2 3.2 1.3 1.3 2.4 3.7 5.1 5.1 4.8 5.4 6.2 6.0 5.8 5.0 4.1 3.9 4.2 4.4 5.3 5.8 5.3 5.1 5.3
6.5 6.5 6.5 6.5 6.5 6.5 6.5 6.5 6.5 6.5 6.5 6.5 6.5 6.7 7.2 7.5 7.7 7.5 7.8 7.7 8.5 8.6 8.2 6.9 6.7 5.5 5.3 3.3 3.6 2.5 2.0 3.4 4.9 5.5 4.7 5.4 6.6 6.4 6.1 5.2 4.7 4.1 4.1 4.0 4.7 5.2 6.1 5.6 5.7
6.5 6.5 6.5 6.5 6.5 6.5 6.5 6.5 6.5 6.5 6.5 6.5 6.5 6.9 7.3 7.5 7.7 7.8 8.1 7.1 7.8 8.1 8.1 6.9 6.6 6.2 5.2 4.7 3.8 1.7 1.8 3.4 4.7 5.2 5.4 5.5 5.5 5.8 5.6 4.7 4.5 4.5 4.3 4.2 4.2 4.4 6.3 5.7 6.3
6.5 6.5 6.5 6.5 6.5 6.5 6.5 6.5 6.5 6.5 6.5 6.5 6.6 7.0 7.4 7.7 7.8 7.5 5.9 6.5 7.6 7.7 7.2 6.9 6.7 6.5 5.6 5.1 3.4 1.4 2.3 3.7 4.7 5.2 5.6 5.3 4.3 5.4 5.6 4.8 5.2 5.0 5.0 4.6 4.6 4.8 5.6 6.8 6.0
Wind_Speed
9 5 3 3 2 0 2 4 2 4 3 3 6 4 7 2 5 2 3 11 8 15 17 19 18 18 16 16 15 16 18 20 22 22 22 23 22 23 20 21 20 22 24 22 21 22 24 23 23
9 3 3 3 2 4 4 3 7 8 3 3 4 4 3 4 2 2 8 10 11 14 17 19 20 17 14 14 16 15 18 20 22 23 23 22 21 21 22 21 20 22 23 24 22 21 21 22 20
4 2 3 3 3 7 4 6 7 2 8 4 3 3 2 2 4 6 5 14 12 13 17 18 17 18 17 14 16 17 18 19 20 21 23 24 24 22 23 22 22 23 24 23 21 21 21 20 22
2 2 3 3 12 5 5 2 4 7 1 4 2 3 1 2 4 7 9 15 14 12 15 17 19 19 18 16 14 15 16 18 19 20 21 22 22 21 20 19 21 24 23 22 23 22 21 21 24
3 1 3 4 8 4 8 6 7 9 5 3 2 2 3 3 0 6 13 14 15 13 13 15 18 16 16 17 17 15 15 15 15 19 21 22 23 21 26 26 22 21 22 19 24 24 26 24 23
3 1 3 13 13 4 6 6 3 5 7 4 4 8 4 1 6 8 11 13 11 11 10 13 17 17 17 17 17 18 16 16 16 17 18 19 20 21 22 21 22 20 23 22 24 28 29 28 25
4 4 6 4 7 5 5 6 5 4 2 1 2 5 2 3 4 9 11 10 9 9 9 11 16 17 16 18 17 19 20 16 17 18 22 23 22 24 20 21 21 23 24 25 24 25 27 29 26
3 3 5 6 14 10 5 7 4 5 3 3 3 1 2 3 4 7 10 10 8 8 10 11 13 17 17 17 19 17 20 19 18 17 16 16 18 20 22 20 19 17 16 21 26 25 25 27 25
4 5 10 14 10 7 4 3 1 0 2 4 0 2 4 2 8 8 7 7 8 8 11 11 12 14 15 17 17 19 20 21 22 21 19 18 14 17 15 18 17 18 14 18 25 24 25 25 22
6 8 13 6 10 5 3 3 2 2 4 3 4 1 2 4 10 12 13 13 14 14 12 11 12 12 14 14 14 16 18 17 16 16 18 15 13 15 18 17 18 15 20 24 24 20 23 22 17
7 15 7 7 11 5 8 7 4 5 9 8 8 4 2 5 8 13 15 16 17 13 9 12 11 11 11 9 11 9 11 12 13 19 15 14 10 9 10 8 9 10 14 16 20 19 20 20 17
7 8 11 4 7 7 9 5 8 10 11 13 10 6 6 9 12 16 17 18 15 15 16 13 13 11 11 10 7 9 6 8 9 12 18 15 9 8 8 8 10 11 14 16 17 16 17 19 22
9 9 7 11 13 10 9 16 17 12 12 15 10 9 12 12 16 15 17 13 13 16 16 16 15 14 12 11 6 8 7 6 10 13 15 16 11 7 11 8 9 13 14 15 15 13 15 15 18
4 11 15 13 16 9 15 18 7 8 15 14 10 14 12 10 14 11 13 17 16 17 18 15 16 15 14 12 11 8 7 9 9 11 12 18 15 10 7 5 7 8 10 14 17 13 11 10 16
4 8 9 11 9 8 6 16 15 18 16 16 16 13 12 11 8 14 15 15 18 17 17 17 18 17 16 15 11 10 7 10 6 8 13 16 16 12 8 7 6 9 7 18 20 17 15 8 13
4 4 9 4 15 9 10 22 5 1 8 9 10 7 7 6 6 10 12 15 16 17 18 18 15 18 17 15 10 9 7 7 8 10 12 14 14 13 11 7 6 11 13 10 12 11 10 8 10
5 8 5 4 11 7 16 17 2 5 2 4 4 5 7 10 10 12 13 13 15 17 18 18 19 20 18 15 10 11 9 7 7 10 9 15 15 17 13 7 7 15 9 8 7 9 10 9 8
12 7 8 9 4 7 12 16 10 12 5 6 10 11 11 12 15 12 11 11 14 15 16 16 16 18 18 11 8 7 6 6 7 6 8 14 13 15 12 6 6 12 7 9 10 13 10 9 9
5 12 15 3 2 3 13 18 11 10 13 14 15 13 13 14 14 6 9 12 12 11 13 17 17 17 14 11 11 8 9 7 6 7 11 12 13 16 10 6 8 8 11 13 12 12 17 8 11
15 17 14 5 7 7 16 21 15 13 17 19 16 14 14 10 9 11 12 10 10 12 13 15 17 18 17 13 10 5 8 5 6 6 7 13 14 15 9 9 7 9 8 16 16 15 10 6 10
14 18 13 13 4 7 8 19 14 5 11 11 11 11 6 6 7 12 13 13 11 12 11 13 16 17 17 16 10 7 6 4 5 5 7 9 13 14 12 10 9 10 9 11 17 14 14 8 7
16 11 12 10 5 8 2 8 5 10 7 5 6 3 3 5 7 11 14 13 13 12 11 12 13 15 17 18 14 15 12 9 6 6 7 6 10 10 12 12 12 13 9 12 12 10 9 11 10
8 9 12 11 10 6 8 6 2 3 6 1 1 5 3 7 10 12 14 14 17 8 11 12 12 14 17 18 16 12 10 8 6 8 10 7 6 9 10 13 13 12 9 11 15 14 12 11 11
7 5 3 3 3 6 10 9 3 7 6 2 2 2 4 7 10 13 14 15 15 6 10 12 13 14 15 18 15 14 14 12 9 8 8 7 4 4 11 14 13 13 12 12 12 13 15 14 14
6 7 3 4 5 6 9 9 7 4 1 3 2 5 6 8 10 12 16 17 17 12 12 12 14 15 15 17 14 14 15 13 12 11 8 7 5 4 6 11 12 12 15 15 14 12 14 15 12
11 11 5 6 5 1 5 6 3 2 8 4 2 4 7 9 10 13 14 16 17 18 14 15 15 15 16 16 14 13 14 9 8 9 7 7 8 7 9 11 12 14 14 14 14 10 9 13 10
5 9 1 2 2 1 4 4 4 6 4 3 2 2 8 12 14 16 16 16 19 19 13 14 14 14 15 13 13 14 13 12 10 11 8 7 8 7 10 11 13 14 15 12 14 10 12 11 10
5 8 6 2 4 6 5 6 5 10 6 4 2 6 9 11 16 16 16 19 19 19 12 13 14 14 14 13 13 12 13 12 11 10 11 10 8 9 10 9 12 14 14 16 17 13 12 13 10
5 4 1 3 4 3 2 2 3 5 3 2 4 2 7 12 16 18 18 23 22 19 13 15 15 14 14 14 14 11 12 12 11 10 11 11 9 8 9 9 10 11 13 15 15 16 15 13 13
3 7 9 5 4 4 6 7 2 4 6 4 4 3 5 11 16 17 18 23 27 10 13 14 12 13 12 12 13 10 11 12 11 11 12 11 10 9 10 10 10 11 12 14 17 17 17 17 13
Wind_Direction
149 139 109 63 187 317 246 245 287 239 232 197 144 170 193 174 168 203 12 171 143 147 160 169 168 165 167 156 147 140 140 147 152 156 154 154 151 144 142 139 143 148 145 138 138 135 136 137 136
143 125 65 101 179 214 231 230 235 234 255 272 184 158 174 204 217 137 129 187 160 150 159 168 169 166 169 161 151 148 146 151 157 158 156 153 149 146 144 144 143 140 141 143 144 144 143 142 131
114 43 134 162 178 220 224 203 202 283 286 228 197 227 193 183 176 181 211 164 156 157 165 172 163 166 167 173 162 157 156 156 161 160 157 156 154 155 153 149 150 143 149 148 151 149 146 135 136
136 97 81 217 227 229 224 216 189 325 4 236 282 237 226 225 168 177 156 159 160 163 173 171 168 169 168 169 170 165 163 164 163 162 159 157 155 155 156 142 153 152 151 154 149 148 137 133 135
56 90 172 229 241 244 240 249 271 291 294 270 251 262 240 198 239 157 161 168 171 170 174 175 168 167 168 171 172 171 163 164 165 167 163 161 163 163 159 162 164 160 156 168 151 145 138 134 129
120 142 195 230 233 222 251 244 226 265 283 313 232 234 250 127 165 165 167 172 174 165 172 168 173 171 172 174 175 170 170 165 163 166 163 165 166 171 167 167 161 180 171 170 158 150 146 142 138
182 171 223 240 259 252 237 220 218 201 276 109 262 212 240 220 175 160 164 161 158 160 171 172 181 185 181 179 188 179 172 174 168 172 178 178 174 179 168 169 187 190 173 173 161 157 152 144 143
154 206 190 225 246 265 227 176 182 170 174 318 205 25 320 17 144 156 158 162 166 169 181 184 183 184 190 189 190 184 170 171 168 171 176 177 176 177 179 187 187 181 171 183 167 163 156 140 140
139 224 225 226 223 232 201 186 165 32 272 338 213 343 323 93 143 158 162 174 180 196 193 192 188 189 185 190 191 178 178 178 170 174 175 171 176 172 182 188 185 179 194 187 158 164 150 139 138
196 223 224 221 224 242 190 201 177 303 333 289 291 283 35 160 174 185 194 198 200 202 198 198 196 193 189 189 188 184 189 191 187 187 185 185 183 177 178 185 190 205 209 191 164 155 140 133 138
198 236 217 219 227 226 255 256 220 255 278 255 278 327 225 206 206 211 215 219 209 203 200 199 200 196 192 189 189 172 182 190 193 192 182 181 166 169 177 184 204 212 216 199 154 152 151 147 151
227 231 230 224 227 227 241 252 242 224 252 269 256 275 256 225 222 218 219 222 215 207 207 201 202 196 196 190 195 183 178 187 192 192 195 189 179 181 189 191 206 216 213 205 159 171 158 155 165
237 232 208 231 249 246 252 250 254 250 245 265 261 269 250 237 232 230 230 232 225 226 211 204 197 197 193 194 195 192 185 188 201 201 189 200 194 186 200 190 196 208 208 191 161 165 152 148 164
205 225 251 249 247 250 257 257 238 226 239 263 256 264 258 247 242 240 228 229 225 230 226 209 203 199 192 194 196 192 178 190 193 205 203 206 203 195 187 185 193 189 192 179 157 156 147 141 166
234 256 256 238 239 238 231 261 249 249 236 236 253 260 272 261 254 232 238 238 230 231 228 210 203 196 196 198 192 194 181 187 190 197 200 207 201 184 170 186 187 176 133 184 156 144 142 140 162
212 205 248 202 205 219 204 262 217 230 201 233 253 271 274 262 267 256 246 238 241 238 226 215 198 195 193 197 190 195 182 184 192 197 197 207 207 192 189 183 170 156 133 163 152 140 136 150 161
216 236 209 241 192 195 209 267 256 111 58 263 262 266 277 288 277 264 258 247 248 236 230 217 199 194 190 193 185 194 179 183 189 198 191 207 204 209 201 189 168 153 147 143 135 131 137 151 161
233 233 242 236 174 222 237 249 265 298 321 296 292 284 282 274 270 271 273 263 261 256 233 213 198 191 184 177 173 183 173 181 183 190 195 207 200 204 199 179 167 158 149 149 156 149 146 159 161
257 238 249 221 226 279 255 266 273 276 285 271 265 262 263 260 267 287 266 275 273 263 219 203 193 188 177 178 179 177 186 182 183 191 192 193 196 186 189 177 170 167 166 162 165 154 144 155 158
233 248 247 259 269 267 276 278 285 262 258 257 258 257 255 263 294 312 314 281 260 253 220 202 196 187 187 183 181 179 174 186 184 189 194 195 198 184 173 169 171 174 179 167 162 157 154 147 164
221 234 242 247 260 264 281 284 262 249 243 254 244 255 264 284 315 331 334 321 277 248 222 206 198 191 191 180 167 151 134 139 170 200 196 197 189 181 175 165 163 145 153 165 160 158 164 144 176
233 214 223 228 247 256 217 288 272 286 246 227 246 289 341 353 348 343 337 326 318 262 219 206 205 188 189 176 174 179 184 191 190 191 204 180 178 178 177 168 164 160 155 154 154 153 148 147 169
230 184 198 207 221 252 229 272 293 188 239 246 139 96 27 353 343 334 335 328 329 261 213 200 187 196 185 180 177 176 186 192 180 194 196 184 181 178 179 165 168 162 170 160 164 166 171 166 177
156 131 112 101 159 242 210 221 210 218 229 137 103 41 1 353 344 339 340 340 342 283 217 196 185 194 183 179 174 170 184 186 187 191 204 200 185 186 179 174 174 165 171 167 173 175 175 179 186
158 159 182 189 204 242 199 215 259 238 92 134 23 6 349 339 340 343 344 344 331 312 229 203 194 193 186 179 173 174 184 182 188 189 192 182 180 189 168 173 178 175 181 178 178 174 186 190 185
186 186 189 204 203 203 139 229 231 174 129 112 72 341 337 339 337 335 342 339 327 327 237 208 199 192 191 180 177 178 180 181 182 183 189 204 200 187 189 179 171 177 179 177 184 174 176 172 182
181 212 212 34 96 287 221 230 229 160 158 146 136 348 358 351 339 332 331 337 327 327 250 209 198 193 186 189 175 181 176 179 185 185 184 195 194 191 189 178 172 177 180 178 175 177 171 175 174
188 155 166 208 215 231 231 237 226 206 203 179 326 350 356 346 337 335 324 333 324 316 252 200 191 191 181 180 187 183 175 178 180 179 183 190 185 184 186 178 180 181 173 174 175 171 177 172 182
180 218 156 197 227 263 294 235 225 177 218 244 253 308 355 344 340 335 335 336 322 303 224 198 187 184 181 180 180 168 176 178 176 178 184 187 178 189 184 168 172 177 181 176 177 181 181 175 183
172 188 198 217 193 228 262 275 106 7 293 280 285 294 353 353 350 348 350 337 316 259 187 188 179 179 176 170 167 161 174 178 177 181 184 180 170 193 183 171 170 175 177 175 177 183 189 189 180